Time,TemperatureF,DewpointF,PressureIn,WindDirection,WindDirectionDegrees,WindSpeedMPH,WindSpeedGustMPH,Humidity,HourlyPrecipIn,Conditions,Clouds,dailyrainin,SolarRadiationWatts/m^2,SoftwareType,DateUTC
2013-05-15 00:22:00,71.0,69.0,-100.00,ESE,103,3.0,7.0,95,0.00,,,0.00,0.000000,,2013-05-15 10:22:00,
2013-05-15 00:32:00,71.0,69.0,-100.00,ESE,103,3.0,7.0,95,0.00,,,0.00,0.000000,,2013-05-15 10:32:00,
2013-05-15 00:42:00,71.0,69.0,-100.00,ESE,103,3.0,7.0,95,0.00,,,0.00,0.000000,,2013-05-15 10:42:00,
2013-05-15 00:52:00,71.0,69.0,-100.00,ESE,103,3.0,7.0,95,0.00,,,0.00,0.000000,,2013-05-15 10:52:00,
2013-05-15 01:26:00,71.0,69.0,-100.00,East,84,3.0,7.0,94,0.00,,,0.00,0.000000,,2013-05-15 11:26:00,
2013-05-15 01:35:00,71.0,69.0,-100.00,East,84,3.0,7.0,94,0.00,,,0.00,0.000000,,2013-05-15 11:35:00,
2013-05-15 01:45:00,71.0,69.0,-100.00,East,84,3.0,7.0,94,0.00,,,0.00,0.000000,,2013-05-15 11:45:00,
2013-05-15 01:53:00,71.0,69.0,-100.00,East,84,3.0,7.0,94,0.00,,,0.00,0.000000,,2013-05-15 11:53:00,
2013-05-15 02:26:00,69.0,68.0,-100.00,East,90,1.0,7.0,96,0.00,,,0.00,0.000000,,2013-05-15 12:26:00,
2013-05-15 02:35:00,69.0,68.0,-100.00,East,90,1.0,7.0,96,0.00,,,0.00,0.000000,,2013-05-15 12:35:00,
2013-05-15 02:45:00,69.0,68.0,-100.00,East,90,1.0,7.0,96,0.00,,,0.00,0.000000,,2013-05-15 12:45:00,
2013-05-15 03:24:00,68.0,68.0,-100.00,NW,306,2.0,5.0,100,0.00,,,0.00,0.000000,,2013-05-15 13:24:00,
2013-05-15 03:35:00,68.0,68.0,-100.00,NW,306,2.0,5.0,100,0.00,,,0.00,0.000000,,2013-05-15 13:35:00,
2013-05-15 03:45:00,68.0,68.0,-100.00,NW,306,2.0,5.0,100,0.00,,,0.00,0.000000,,2013-05-15 13:45:00,
2013-05-15 04:25:00,68.0,68.0,-100.00,NNW,336,1.0,5.0,100,0.00,,,0.00,0.000000,,2013-05-15 14:25:00,
2013-05-15 04:36:00,68.0,68.0,-100.00,NNW,336,1.0,5.0,100,0.00,,,0.00,0.000000,,2013-05-15 14:36:00,
2013-05-15 04:44:00,68.0,68.0,-100.00,NNW,336,1.0,5.0,100,0.00,,,0.00,0.000000,,2013-05-15 14:44:00,
2013-05-15 04:52:00,68.0,68.0,-100.00,NNW,336,1.0,5.0,100,0.00,,,0.00,0.000000,,2013-05-15 14:52:00,
2013-05-15 05:26:00,69.0,69.0,-100.00,North,357,2.0,8.0,100,0.00,,,-99.99,0.000000,,2013-05-15 15:26:00,
2013-05-15 05:35:00,69.0,69.0,-100.00,North,357,2.0,8.0,100,0.00,,,-99.99,0.000000,,2013-05-15 15:35:00,
2013-05-15 05:45:00,69.0,69.0,-100.00,North,357,2.0,8.0,100,0.00,,,-99.99,0.000000,,2013-05-15 15:45:00,
2013-05-15 05:54:00,69.0,69.0,-100.00,North,357,2.0,8.0,100,0.00,,,-99.99,0.000000,,2013-05-15 15:54:00,
2013-05-15 06:27:00,68.0,67.0,-100.00,NW,317,2.0,6.0,97,0.00,,,0.00,0.000000,,2013-05-15 16:27:00,
2013-05-15 06:34:00,68.0,67.0,-100.00,NW,317,2.0,6.0,97,0.00,,,0.00,0.000000,,2013-05-15 16:34:00,
2013-05-15 06:52:00,68.0,67.0,-100.00,NW,317,2.0,6.0,97,0.00,,,0.00,0.000000,,2013-05-15 16:52:00,
2013-05-15 07:26:00,72.0,70.0,-100.00,WNW,301,3.0,7.0,93,0.00,,,0.00,21.000000,,2013-05-15 17:26:00,
2013-05-15 07:45:00,72.0,70.0,-100.00,WNW,301,3.0,7.0,93,0.00,,,0.00,21.000000,,2013-05-15 17:45:00,
2013-05-15 07:53:00,72.0,70.0,-100.00,WNW,301,3.0,7.0,93,0.00,,,0.00,21.000000,,2013-05-15 17:53:00,
2013-05-15 08:25:00,76.0,71.0,-100.00,SSW,204,2.0,7.0,85,0.00,,,0.00,85.000000,,2013-05-15 18:25:00,
2013-05-15 08:35:00,76.0,71.0,-100.00,SSW,204,2.0,7.0,85,0.00,,,0.00,85.000000,,2013-05-15 18:35:00,
2013-05-15 08:46:00,76.0,71.0,-100.00,SSW,204,2.0,7.0,85,0.00,,,0.00,85.000000,,2013-05-15 18:46:00,
2013-05-15 08:54:00,76.0,71.0,-100.00,SSW,204,2.0,7.0,85,0.00,,,0.00,85.000000,,2013-05-15 18:54:00,
2013-05-15 09:35:00,77.0,69.0,-100.00,NE,42,8.0,14.0,76,0.00,,,0.00,185.000000,,2013-05-15 19:35:00,
2013-05-15 09:53:00,77.0,69.0,-100.00,NE,42,8.0,14.0,76,0.00,,,0.00,185.000000,,2013-05-15 19:53:00,
2013-05-15 10:25:00,78.0,69.0,-100.00,ENE,76,6.0,16.0,75,0.00,,,0.00,159.000000,,2013-05-15 20:25:00,
2013-05-15 10:35:00,78.0,69.0,-100.00,ENE,76,6.0,16.0,75,0.00,,,0.00,159.000000,,2013-05-15 20:35:00,
2013-05-15 10:44:00,78.0,69.0,-100.00,ENE,76,6.0,16.0,75,0.00,,,0.00,159.000000,,2013-05-15 20:44:00,
2013-05-15 10:52:00,78.0,69.0,-100.00,ENE,76,6.0,16.0,75,0.00,,,0.00,159.000000,,2013-05-15 20:52:00,
2013-05-15 11:26:00,80.0,71.0,-100.00,East,79,9.0,17.0,73,0.00,,,0.00,219.000000,,2013-05-15 21:26:00,
2013-05-15 11:38:00,80.0,71.0,-100.00,East,79,9.0,17.0,73,0.00,,,0.00,219.000000,,2013-05-15 21:38:00,
2013-05-15 12:27:00,80.0,71.0,-100.00,East,85,9.0,17.0,74,0.00,,,0.00,303.000000,,2013-05-15 22:27:00,
2013-05-15 12:36:00,80.0,71.0,-100.00,East,85,9.0,17.0,74,0.00,,,0.00,303.000000,,2013-05-15 22:36:00,
2013-05-15 12:46:00,80.0,71.0,-100.00,East,85,9.0,17.0,74,0.00,,,0.00,303.000000,,2013-05-15 22:46:00,
2013-05-15 12:53:00,80.0,71.0,-100.00,East,85,9.0,17.0,74,0.00,,,0.00,303.000000,,2013-05-15 22:53:00,
2013-05-15 13:27:00,79.0,69.0,-100.00,ENE,66,8.0,19.0,72,0.00,,,0.00,293.000000,,2013-05-15 23:27:00,
2013-05-15 13:36:00,79.0,69.0,-100.00,ENE,66,8.0,19.0,72,0.00,,,0.00,293.000000,,2013-05-15 23:36:00,
2013-05-15 13:45:00,79.0,69.0,-100.00,ENE,66,8.0,19.0,72,0.00,,,0.00,293.000000,,2013-05-15 23:45:00,
2013-05-15 13:52:00,79.0,69.0,-100.00,ENE,66,8.0,19.0,72,0.00,,,0.00,293.000000,,2013-05-15 23:52:00,
2013-05-15 14:25:00,79.0,69.0,-100.00,ENE,63,7.0,17.0,72,0.00,,,0.00,296.000000,,2013-05-16 00:25:00,
2013-05-15 14:35:00,79.0,69.0,-100.00,ENE,63,7.0,17.0,72,0.00,,,0.00,296.000000,,2013-05-16 00:35:00,
2013-05-15 14:45:00,79.0,69.0,-100.00,ENE,63,7.0,17.0,72,0.00,,,0.00,296.000000,,2013-05-16 00:45:00,
2013-05-15 15:26:00,78.0,67.0,-100.00,ENE,74,10.0,18.0,70,0.00,,,0.00,341.000000,,2013-05-16 01:26:00,
2013-05-15 15:35:00,78.0,67.0,-100.00,ENE,74,10.0,18.0,70,0.00,,,0.00,341.000000,,2013-05-16 01:35:00,
2013-05-15 15:46:00,78.0,67.0,-100.00,ENE,74,10.0,18.0,70,0.00,,,0.00,341.000000,,2013-05-16 01:46:00,
2013-05-15 15:53:00,78.0,67.0,-100.00,ENE,74,10.0,18.0,70,0.00,,,0.00,341.000000,,2013-05-16 01:53:00,
2013-05-15 16:26:00,78.0,69.0,-100.00,ENE,57,9.0,17.0,74,0.00,,,0.00,237.000000,,2013-05-16 02:26:00,
2013-05-15 16:36:00,78.0,69.0,-100.00,ENE,57,9.0,17.0,74,0.00,,,0.00,237.000000,,2013-05-16 02:36:00,
2013-05-15 16:43:00,78.0,69.0,-100.00,ENE,57,9.0,17.0,74,0.00,,,0.00,237.000000,,2013-05-16 02:43:00,
2013-05-15 16:51:00,78.0,69.0,-100.00,ENE,57,9.0,17.0,74,0.00,,,0.00,237.000000,,2013-05-16 02:51:00,
2013-05-15 17:24:00,74.0,68.0,-100.00,NNE,23,6.0,14.0,83,0.00,,,0.00,118.000000,,2013-05-16 03:24:00,
2013-05-15 17:44:00,74.0,68.0,-100.00,NNE,23,6.0,14.0,83,0.00,,,0.00,118.000000,,2013-05-16 03:44:00,
2013-05-15 17:54:00,74.0,68.0,-100.00,NNE,23,6.0,14.0,83,0.00,,,0.00,118.000000,,2013-05-16 03:54:00,
2013-05-15 18:23:00,74.0,71.0,-100.00,NE,44,5.0,12.0,90,0.00,,,0.00,76.000000,,2013-05-16 04:23:00,
2013-05-15 18:33:00,74.0,71.0,-100.00,NE,44,5.0,12.0,90,0.00,,,0.00,76.000000,,2013-05-16 04:33:00,
2013-05-15 18:42:00,74.0,71.0,-100.00,NE,44,5.0,12.0,90,0.00,,,0.00,76.000000,,2013-05-16 04:42:00,
2013-05-15 18:52:00,74.0,71.0,-100.00,NE,44,5.0,12.0,90,0.00,,,0.00,76.000000,,2013-05-16 04:52:00,
2013-05-15 19:22:00,71.0,69.0,-100.00,NE,44,6.0,12.0,95,0.00,,,0.00,37.000000,,2013-05-16 05:22:00,
2013-05-15 19:32:00,71.0,69.0,-100.00,NE,44,6.0,12.0,95,0.00,,,0.00,37.000000,,2013-05-16 05:32:00,
2013-05-15 19:42:00,71.0,69.0,-100.00,NE,44,6.0,12.0,95,0.00,,,0.00,37.000000,,2013-05-16 05:42:00,
2013-05-15 19:52:00,71.0,69.0,-100.00,NE,44,6.0,12.0,95,0.00,,,0.00,37.000000,,2013-05-16 05:52:00,
2013-05-15 20:22:00,71.0,71.0,-100.00,NE,46,5.0,11.0,100,0.00,,,0.00,0.000000,,2013-05-16 06:22:00,
2013-05-15 20:33:00,71.0,71.0,-100.00,NE,46,5.0,11.0,100,0.00,,,0.00,0.000000,,2013-05-16 06:33:00,
2013-05-15 20:43:00,71.0,71.0,-100.00,NE,46,5.0,11.0,100,0.00,,,0.00,0.000000,,2013-05-16 06:43:00,
2013-05-15 20:52:00,71.0,71.0,-100.00,NE,46,5.0,11.0,100,0.00,,,0.00,0.000000,,2013-05-16 06:52:00,
2013-05-15 21:24:00,70.0,70.0,-100.00,NE,38,3.0,11.0,100,0.00,,,0.00,0.000000,,2013-05-16 07:24:00,
2013-05-15 21:34:00,70.0,70.0,-100.00,NE,38,3.0,11.0,100,0.00,,,0.00,0.000000,,2013-05-16 07:34:00,
2013-05-15 21:44:00,70.0,70.0,-100.00,NE,38,3.0,11.0,100,0.00,,,0.00,0.000000,,2013-05-16 07:44:00,
2013-05-15 21:54:00,70.0,70.0,-100.00,NE,38,3.0,11.0,100,0.00,,,0.00,0.000000,,2013-05-16 07:54:00,
2013-05-15 22:23:00,67.0,67.0,-100.00,WNW,302,2.0,7.0,100,0.00,,,0.00,0.000000,,2013-05-16 08:23:00,
2013-05-15 22:34:00,67.0,67.0,-100.00,WNW,302,2.0,7.0,100,0.00,,,0.00,0.000000,,2013-05-16 08:34:00,
2013-05-15 22:44:00,67.0,67.0,-100.00,WNW,302,2.0,7.0,100,0.00,,,0.00,0.000000,,2013-05-16 08:44:00,
2013-05-15 22:54:00,67.0,67.0,-100.00,WNW,302,2.0,7.0,100,0.00,,,0.00,0.000000,,2013-05-16 08:54:00,
2013-05-15 23:24:00,68.0,68.0,-100.00,West,269,3.0,9.0,100,0.00,,,0.00,0.000000,,2013-05-16 09:24:00,
2013-05-15 23:35:00,68.0,68.0,-100.00,West,269,3.0,9.0,100,0.00,,,0.00,0.000000,,2013-05-16 09:35:00,
2013-05-15 23:45:00,68.0,68.0,-100.00,West,269,3.0,9.0,100,0.00,,,0.00,0.000000,,2013-05-16 09:45:00,
2013-05-15 23:55:00,68.0,68.0,-100.00,West,269,3.0,9.0,100,0.00,,,0.00,0.000000,,2013-05-16 09:55:00,